Вернуться в каталог

PSLV R/B

АктивенSSO
NORAD 40058·ROCKET BODY·🇮🇳 India

Запущен Jun 30, 2014 с Satish Dhawan Space Centre

Loading…

Ближайшие Пролёты (ближайшие 24 часа)

TLE

СвежийSource: Space-Track

Эпоха: Sep 14, 2026, 13:51 UTC

1 40058U 14034F   26257.57737523  .00000486  00000-0  64649-4 0  9991
2 40058  98.2725 122.6584 0021185  48.0184 312.2829 14.84418111659338

Отслеживайте PSLV R/B в реальном времени с AllMySat

Download on the App Store